Change the Weather History Date:

Monday, December 30, 2013

  Actual Average Record
Temperature  
Mean Temperature -22 °F -  
Max Temperature -16 °F -12 °F 8 °F (2010)
Min Temperature -27 °F -26 °F -47 °F (2004)
Degree Days  
Heating Degree Days 86    
Moisture  
Dew Point -28 °F    
Average Humidity 75    
Maximum Humidity 76    
Minimum Humidity 69    
Precipitation  
Precipitation 0.00 in - - ()
Sea Level Pressure  
Sea Level Pressure 29.98 in    
Wind  
Wind Speed 12 mph ()    
Max Wind Speed 17 mph    
Max Gust Speed -    
Visibility 5.1 miles    
Events Snow    
Averages and records for this station are not official NWS values.
T = Trace of Precipitation, MM = Missing Value Source: Averaged Metar Reports

Daily Weather History Graph

Daily Weather History Graph

Search for Another Location

Airport or City:

Trip Planner

Search our weather history database for the weather conditions in past years. The results will help you decide how hot, cold, wet, or windy it might be!

Date:

Astronomy

Dec. 30, 2013 Rise Set
Actual Time 11:55 AM EST 1:00 PM EST
Civil Twilight 9:54 AM EST 3:00 PM EST
Nautical Twilight 8:21 AM EST 4:34 PM EST
Astronomical Twilight 7:07 AM EST 5:48 PM EST
Moon 8:56 AM EST (12/30) 12:17 PM EST (12/30)
Length of Visible Light 5h 06m
Length of Day
1h 04m
Waning Crescent, 5% of the Moon is Illuminated
Dec 30
Waning Crescent
Jan 1
New
Jan 7
First Quarter
Jan 15
Full
Jan 24
Last Quarter

Hourly Weather History & Observations

Time (EST) Temp. Windchill Dew Point Humidity Pressure Visibility Wind Dir Wind Speed Gust Speed Precip Events Conditions
12:00 AM -18.4 °F -43.7 °F -23.8 °F 76% 29.95 in 1.5 mi NNW 16.1 mph - N/A Snow Ice Crystals
1:00 AM -18.4 °F -42.9 °F -23.8 °F 76% 29.95 in 1.5 mi NNW 15.0 mph - N/A Snow Ice Crystals
1:26 AM -18.4 °F -42.1 °F -23.8 °F 76% 29.95 in 3.0 mi NNW 13.8 mph - N/A Snow Ice Crystals
2:00 AM -18.4 °F -42.9 °F -23.8 °F 76% 29.95 in 3.0 mi North 15.0 mph - N/A Snow Ice Crystals
2:32 AM -16.6 °F -39.8 °F -22.0 °F 76% 29.95 in 2.0 mi North 13.8 mph - N/A Snow Light Snow
3:00 AM -16.6 °F -38.9 °F -22.0 °F 76% 29.96 in 1.5 mi North 12.7 mph - N/A Snow Light Snow
3:01 AM -16.6 °F -38.9 °F -22.0 °F 76% 29.96 in 1.5 mi North 12.7 mph - N/A Snow Light Snow
3:17 AM -18.4 °F -39.1 °F -23.8 °F 76% 29.96 in 2.2 mi North 10.4 mph - N/A Snow Light Snow
3:29 AM -18.4 °F -39.1 °F -23.8 °F 76% 29.96 in 3.0 mi North 10.4 mph - N/A Snow Light Snow
3:42 AM -20.2 °F -43.4 °F -25.6 °F 76% 29.96 in 4.0 mi North 12.7 mph - N/A   Haze
3:46 AM -20.2 °F -43.4 °F -25.6 °F 76% 29.96 in 4.0 mi North 12.7 mph - N/A Snow Light Snow
3:49 AM -20.2 °F -43.4 °F -25.6 °F 76% 29.96 in 6.0 mi North 12.7 mph - N/A Snow Light Snow
4:00 AM -18.4 °F -40.2 °F -23.8 °F 76% 29.96 in 9.0 mi North 11.5 mph - N/A Snow Light Snow
4:07 AM -18.4 °F -37.9 °F -23.8 °F 76% 29.96 in 9.0 mi North 9.2 mph - N/A   Scattered Clouds
4:08 AM -18.4 °F -36.6 °F -25.6 °F 70% 29.96 in 9.0 mi North 8.1 mph - N/A Snow Light Snow
4:57 AM -22.0 °F -42.3 °F -27.4 °F 76% 29.97 in 9.0 mi North 9.2 mph - N/A   Mostly Cloudy
5:00 AM -20.2 °F -40.1 °F -25.6 °F 76% 29.97 in 9.0 mi North 9.2 mph - N/A   Mostly Cloudy
5:13 AM -20.2 °F -42.4 °F -27.4 °F 69% 29.97 in 9.0 mi North 11.5 mph - N/A Snow Light Snow
5:41 AM -22.0 °F -44.7 °F -27.4 °F 76% 29.98 in 5.0 mi NNW 11.5 mph - N/A Snow Light Snow
6:00 AM -22.0 °F -45.7 °F -27.4 °F 76% 29.98 in 4.0 mi NNW 12.7 mph - N/A Snow Light Snow
6:10 AM -22.0 °F -44.7 °F -27.4 °F 76% 29.98 in 6.0 mi NNW 11.5 mph - N/A Snow Light Snow
6:57 AM -23.8 °F -46.9 °F -29.2 °F 76% 29.98 in 5.0 mi NNW 11.5 mph - N/A Snow Light Snow
7:00 AM -23.8 °F -46.9 °F -29.2 °F 76% 29.98 in 6.0 mi NNW 11.5 mph - N/A   Ice Crystals
8:00 AM -23.8 °F -48.0 °F -31.0 °F 69% 29.98 in 6.0 mi NNW 12.7 mph - N/A   Ice Crystals
9:00 AM -23.8 °F -45.8 °F -31.0 °F 69% 29.98 in 8.0 mi NNW 10.4 mph - N/A   Ice Crystals
10:00 AM -23.8 °F -48.0 °F -29.2 °F 76% 29.99 in 8.0 mi NNW 12.7 mph - N/A   Ice Crystals
11:00 AM -23.8 °F -48.9 °F -29.2 °F 76% 29.99 in 4.0 mi NW 13.8 mph - N/A   Ice Crystals
12:00 PM -23.8 °F -48.9 °F -29.2 °F 76% 29.99 in 8.0 mi NW 13.8 mph - N/A   Ice Crystals
1:00 PM -23.8 °F -48.0 °F -29.2 °F 76% 29.99 in 10.0 mi NNW 12.7 mph - N/A   Ice Crystals
2:00 PM -23.8 °F -48.0 °F -29.2 °F 76% 29.99 in 8.0 mi NNW 12.7 mph - N/A   Ice Crystals
2:10 PM -22.0 °F -45.7 °F -27.4 °F 76% 29.99 in 8.0 mi NNW 12.7 mph - N/A   Ice Crystals
3:00 PM -18.4 °F -41.2 °F -23.8 °F 76% 29.99 in 10.0 mi NW 12.7 mph - N/A   Ice Crystals
3:45 PM -20.2 °F -43.4 °F -25.6 °F 76% 29.99 in 5.0 mi NNW 12.7 mph - N/A   Ice Crystals
4:00 PM -20.2 °F -43.4 °F -25.6 °F 76% 29.99 in 4.0 mi NNW 12.7 mph - N/A   Ice Crystals
4:43 PM -22.0 °F -46.6 °F -27.4 °F 76% 30.00 in 8.0 mi NNW 13.8 mph - N/A   Ice Crystals
5:00 PM -23.8 °F -49.8 °F -29.2 °F 76% 30.00 in 8.0 mi NNW 15.0 mph - N/A   Ice Crystals
6:00 PM -25.6 °F -52.1 °F -31.0 °F 76% 30.01 in 10.0 mi NNW 15.0 mph - N/A   Ice Crystals
7:00 PM -23.8 °F -51.5 °F -31.0 °F 69% 30.01 in 4.0 mi NNW 17.3 mph - N/A Snow Ice Crystals
7:14 PM -25.6 °F -53.0 °F -31.0 °F 76% 30.01 in 2.0 mi NNW 16.1 mph - N/A Snow Light Snow
7:33 PM -25.6 °F -53.0 °F -31.0 °F 76% 30.01 in 2.2 mi NNW 16.1 mph - N/A Snow Light Snow
7:50 PM -25.6 °F -52.1 °F -32.8 °F 69% 30.01 in 2.0 mi NNW 15.0 mph - N/A Snow Light Snow
8:00 PM -25.6 °F -52.1 °F -32.8 °F 69% 30.01 in 2.0 mi NNW 15.0 mph - N/A Snow Light Snow
9:00 PM -25.6 °F -52.1 °F -32.8 °F 69% 30.00 in 2.0 mi NNW 15.0 mph - N/A Snow Light Snow
9:26 PM -25.6 °F -52.1 °F -32.8 °F 69% 30.00 in 2.2 mi NNW 15.0 mph - N/A Snow Light Snow
9:37 PM -27.4 °F -53.5 °F -32.8 °F 75% 30.00 in 2.0 mi NNW 13.8 mph - N/A Snow Light Snow
9:48 PM -25.6 °F -53.0 °F -32.8 °F 69% 29.99 in 2.2 mi NNW 16.1 mph - N/A Snow Light Snow
9:57 PM -27.4 °F -54.5 °F -32.8 °F 75% 29.99 in 3.0 mi NNW 15.0 mph - N/A Snow Light Snow
10:00 PM -27.4 °F -54.5 °F -32.8 °F 75% 29.99 in 3.0 mi NNW 15.0 mph - N/A Snow Light Snow
11:00 PM -27.4 °F -54.5 °F -32.8 °F 75% 29.99 in 5.0 mi NNW 15.0 mph - N/A Snow Light Snow